AAL453 KSAN-KSEA

Flight info

Callsign AAL453
Flight time N/A
Altitude 36000
Route PADRZ2 EHF SHIMR LKV HAWKZ8
Aircraft B738/M-SDE2E3FGHIRWXYZ/L

Departure

Time 2026-04-22 05:36
Airport San Diego International Airport (KSAN)

Arrival

Time N/A
Airport Seattle–Tacoma International Airport (KSEA)
Time Latitude Longitude Altitude Speed Heading
2026-04-22 05:09 32.73159 -117.19556 26 ft 0 kts 260°
2026-04-22 05:23 32.73161 -117.19548 26 ft 2 kts 225°
2026-04-22 05:23 32.73172 -117.19536 26 ft 2 kts 232°
2026-04-22 05:23 32.73179 -117.19525 26 ft 1 kts 250°
2026-04-22 05:23 32.73179 -117.19514 26 ft 1 kts 308°
2026-04-22 05:24 32.73170 -117.19508 26 ft 1 kts
2026-04-22 05:24 32.73164 -117.19511 26 ft 0 kts 25°
2026-04-22 05:24 32.73160 -117.19512 26 ft 0 kts 19°
2026-04-22 05:29 32.73163 -117.19511 26 ft 2 kts 19°
2026-04-22 05:30 32.73213 -117.19491 26 ft 12 kts 18°
2026-04-22 05:30 32.73290 -117.19451 26 ft 12 kts 28°
2026-04-22 05:30 32.73346 -117.19386 26 ft 9 kts 78°
2026-04-22 05:30 32.73341 -117.19319 26 ft 8 kts 103°
2026-04-22 05:31 32.73319 -117.19237 26 ft 11 kts 109°
2026-04-22 05:31 32.73296 -117.19157 26 ft 8 kts 108°
2026-04-22 05:31 32.73282 -117.19096 26 ft 7 kts 102°
2026-04-22 05:31 32.73268 -117.19028 26 ft 9 kts 104°
2026-04-22 05:32 32.73250 -117.18945 26 ft 11 kts 104°
2026-04-22 05:32 32.73227 -117.18849 26 ft 13 kts 108°
2026-04-22 05:32 32.73197 -117.18739 26 ft 14 kts 108°
2026-04-22 05:32 32.73159 -117.18591 26 ft 22 kts 107°
2026-04-22 05:33 32.73109 -117.18384 26 ft 28 kts 105°
2026-04-22 05:33 32.73056 -117.18168 26 ft 24 kts 105°
2026-04-22 05:33 32.73013 -117.17984 26 ft 21 kts 106°
2026-04-22 05:33 32.72982 -117.17859 26 ft 18 kts 106°
2026-04-22 05:34 32.72961 -117.17730 26 ft 5 kts 73°
2026-04-22 05:34 32.72961 -117.17728 26 ft 0 kts 74°
2026-04-22 05:34 32.72968 -117.17709 26 ft 5 kts 61°
2026-04-22 05:35 32.73008 -117.17671 26 ft 9 kts
2026-04-22 05:35 32.73071 -117.17697 26 ft 8 kts 290°
2026-04-22 05:35 32.73098 -117.17844 26 ft 35 kts 280°
2026-04-22 05:35 32.73189 -117.18285 27 ft 80 kts 285°
2026-04-22 05:36 32.73413 -117.19190 78 ft 137 kts 285°
2026-04-22 05:36 32.73692 -117.20264 393 ft 142 kts 287°
2026-04-22 05:36 32.74078 -117.21501 878 ft 177 kts 291°
2026-04-22 05:36 32.74634 -117.22942 1512 ft 213 kts 295°
2026-04-22 05:37 32.75387 -117.24514 1415 ft 220 kts 304°
2026-04-22 05:37 32.76415 -117.25923 1858 ft 233 kts 309°
2026-04-22 05:37 32.77430 -117.27476 2368 ft 241 kts 303°
2026-04-22 05:37 32.78350 -117.29054 2849 ft 245 kts 302°
2026-04-22 05:38 32.79305 -117.30728 3255 ft 250 kts 302°
2026-04-22 05:38 32.80323 -117.32420 3661 ft 258 kts 305°
2026-04-22 05:38 32.81477 -117.34197 4078 ft 280 kts 306°
2026-04-22 05:38 32.82663 -117.36026 4667 ft 282 kts 306°
2026-04-22 05:39 32.83869 -117.37891 5375 ft 288 kts 305°
2026-04-22 05:39 32.85100 -117.39794 6077 ft 292 kts 304°
2026-04-22 05:39 32.86330 -117.41697 6827 ft 296 kts 304°
2026-04-22 05:39 32.87596 -117.43660 7528 ft 301 kts 303°
2026-04-22 05:40 32.88863 -117.45628 8221 ft 306 kts 303°
2026-04-22 05:40 32.90173 -117.47665 8927 ft 312 kts 302°
2026-04-22 05:40 32.91491 -117.49718 9626 ft 317 kts 302°
2026-04-22 05:40 32.92825 -117.51795 10312 ft 322 kts 302°
2026-04-22 05:41 32.94204 -117.53949 10579 ft 327 kts 302°
2026-04-22 05:41 32.95576 -117.56085 10676 ft 321 kts 302°
2026-04-22 05:41 32.96912 -117.58164 11327 ft 323 kts 302°
2026-04-22 05:41 32.98288 -117.60314 12115 ft 328 kts 301°
2026-04-22 05:42 32.99679 -117.62486 12921 ft 334 kts 301°
2026-04-22 05:42 33.01087 -117.64685 13719 ft 338 kts 301°
2026-04-22 05:42 33.02505 -117.66900 14518 ft 340 kts 300°
2026-04-22 05:42 33.03930 -117.69125 15316 ft 341 kts 300°
2026-04-22 05:43 33.05396 -117.71351 16118 ft 345 kts 302°
2026-04-22 05:43 33.07046 -117.73457 16921 ft 352 kts 309°
2026-04-22 05:43 33.08881 -117.75399 17678 ft 357 kts 311°
2026-04-22 05:43 33.10775 -117.77348 18319 ft 360 kts 311°
2026-04-22 05:44 33.12671 -117.79299 18944 ft 362 kts 311°
2026-04-22 05:44 33.14582 -117.81258 19570 ft 366 kts 311°
2026-04-22 05:44 33.16514 -117.83215 20193 ft 370 kts 313°
2026-04-22 05:44 33.18549 -117.85114 20818 ft 377 kts 316°
2026-04-22 05:45 33.20791 -117.86774 21137 ft 392 kts 325°
2026-04-22 05:45 33.23274 -117.88171 21132 ft 392 kts 328°
2026-04-22 05:45 33.25759 -117.89487 21233 ft 387 kts 328°
2026-04-22 05:45 33.28214 -117.90796 21833 ft 390 kts 327°
2026-04-22 05:46 33.30673 -117.92117 22454 ft 398 kts 327°
2026-04-22 05:46 33.33244 -117.93490 23087 ft 405 kts 328°
2026-04-22 05:46 33.35844 -117.94872 23716 ft 412 kts 328°
2026-04-22 05:46 33.38454 -117.96255 24336 ft 418 kts 328°
2026-04-22 05:47 33.41136 -117.97675 24966 ft 423 kts 328°
2026-04-22 05:47 33.43794 -117.99079 25583 ft 427 kts 328°
2026-04-22 05:47 33.46512 -118.00515 26210 ft 430 kts 327°
2026-04-22 05:47 33.49264 -118.01968 26839 ft 432 kts 327°
2026-04-22 05:48 33.51989 -118.03406 27459 ft 434 kts 327°
2026-04-22 05:48 33.54757 -118.04869 28086 ft 436 kts 327°
2026-04-22 05:48 33.57533 -118.06335 28712 ft 437 kts 327°
2026-04-22 05:48 33.57737 -118.06444 28758 ft 437 kts 327°
2026-04-22 05:49 33.60173 -118.07731 29307 ft 437 kts 327°
2026-04-22 05:49 33.62930 -118.09189 29929 ft 437 kts 327°
2026-04-22 05:49 33.65729 -118.10670 30561 ft 437 kts 327°
2026-04-22 05:49 33.68460 -118.12115 31178 ft 436 kts 327°
2026-04-22 05:50 33.71213 -118.13569 31803 ft 434 kts 326°
2026-04-22 05:50 33.73982 -118.15031 32433 ft 432 kts 326°
2026-04-22 05:50 33.76716 -118.16473 33056 ft 430 kts 326°
2026-04-22 05:50 33.79438 -118.17911 33682 ft 427 kts 326°
2026-04-22 05:51 33.82133 -118.19340 34307 ft 424 kts 326°
2026-04-22 05:51 33.84814 -118.20759 34932 ft 421 kts 326°
2026-04-22 05:51 33.87444 -118.22149 35551 ft 417 kts 326°
2026-04-22 05:51 33.90093 -118.23550 36071 ft 416 kts 325°
2026-04-22 05:52 33.95425 -118.26389 36116 ft 422 kts 325°
2026-04-22 05:52 34.00733 -118.29221 36122 ft 420 kts 325°
2026-04-22 05:53 34.06058 -118.32070 36122 ft 419 kts 325°
2026-04-22 05:53 34.11371 -118.34917 36121 ft 419 kts 325°
2026-04-22 05:54 34.16669 -118.37760 36122 ft 419 kts 325°
2026-04-22 05:54 34.22013 -118.40630 36122 ft 420 kts 325°
2026-04-22 05:55 34.27298 -118.43473 36110 ft 421 kts 325°
2026-04-22 05:55 34.32650 -118.46359 36095 ft 421 kts 325°
2026-04-22 05:56 34.37957 -118.49223 36095 ft 421 kts 325°
2026-04-22 05:56 34.43312 -118.52116 36095 ft 421 kts 325°
2026-04-22 05:57 34.48641 -118.54999 36095 ft 421 kts 325°
2026-04-22 05:57 34.53937 -118.57867 36095 ft 421 kts 325°
2026-04-22 05:58 34.59293 -118.60772 36095 ft 421 kts 325°
2026-04-22 05:58 34.64617 -118.63663 36095 ft 421 kts 325°
2026-04-22 05:59 34.69925 -118.66550 36096 ft 421 kts 324°
2026-04-22 05:59 34.75262 -118.69453 36095 ft 420 kts 324°
2026-04-22 06:00 34.80593 -118.72380 36054 ft 428 kts 324°
2026-04-22 06:00 34.86029 -118.75368 36051 ft 429 kts 324°
2026-04-22 06:01 34.91432 -118.78326 36077 ft 427 kts 324°
2026-04-22 06:01 34.96822 -118.81284 36077 ft 427 kts 324°
2026-04-22 06:02 35.02240 -118.84260 36077 ft 427 kts 324°
2026-04-22 06:02 35.07635 -118.87225 36077 ft 427 kts 324°
2026-04-22 06:03 35.13030 -118.90194 36076 ft 427 kts 324°
2026-04-22 06:03 35.18426 -118.93167 36077 ft 427 kts 324°
2026-04-22 06:04 35.23817 -118.96143 36077 ft 428 kts 324°
2026-04-22 06:04 35.29261 -118.99159 36074 ft 432 kts 324°
2026-04-22 06:05 35.34712 -119.02192 36073 ft 434 kts 324°
2026-04-22 06:05 35.40181 -119.05227 36073 ft 432 kts 324°
2026-04-22 06:06 35.45641 -119.08261 36073 ft 432 kts 324°
2026-04-22 06:06 35.51330 -119.10883 36074 ft 445 kts 333°
2026-04-22 06:07 35.57251 -119.12957 36073 ft 445 kts 333°
2026-04-22 06:07 35.63199 -119.15066 36073 ft 445 kts 333°
2026-04-22 06:08 35.69103 -119.17153 36073 ft 445 kts 333°
2026-04-22 06:08 35.75026 -119.19247 36073 ft 445 kts 333°
2026-04-22 06:09 35.80987 -119.21371 36102 ft 452 kts 334°
2026-04-22 06:09 35.87046 -119.23530 36099 ft 453 kts 334°
2026-04-22 06:10 35.93045 -119.25658 36093 ft 452 kts 334°
2026-04-22 06:10 35.99095 -119.27816 36064 ft 454 kts 334°
2026-04-22 06:11 36.05112 -119.29960 36064 ft 454 kts 334°
2026-04-22 06:11 36.11156 -119.32114 36063 ft 453 kts 334°
2026-04-22 06:12 36.17201 -119.34270 36064 ft 453 kts 334°
2026-04-22 06:12 36.23254 -119.36433 36064 ft 454 kts 334°
2026-04-22 06:13 36.29312 -119.38610 36073 ft 460 kts 334°
2026-04-22 06:13 36.35448 -119.40829 36075 ft 464 kts 334°
2026-04-22 06:14 36.41607 -119.43040 36073 ft 462 kts 334°
2026-04-22 06:14 36.47744 -119.45250 36074 ft 461 kts 334°
2026-04-22 06:15 36.53893 -119.47467 36075 ft 462 kts 334°
2026-04-22 06:15 36.60035 -119.49683 36074 ft 462 kts 334°
2026-04-22 06:16 36.66175 -119.51901 36074 ft 462 kts 334°
2026-04-22 06:16 36.72335 -119.54129 36074 ft 462 kts 334°
2026-04-22 06:17 36.78479 -119.56359 36080 ft 466 kts 335°
2026-04-22 06:17 36.84743 -119.58653 36086 ft 471 kts 335°
2026-04-22 06:18 36.90987 -119.60926 36084 ft 469 kts 335°
2026-04-22 06:18 36.97200 -119.63191 36085 ft 469 kts 335°
2026-04-22 06:19 37.03443 -119.65471 36087 ft 469 kts 334°
2026-04-22 06:19 37.09709 -119.67753 36085 ft 469 kts 334°
2026-04-22 06:20 37.15953 -119.70033 36085 ft 468 kts 334°
2026-04-22 06:20 37.22171 -119.72312 36086 ft 468 kts 334°
2026-04-22 06:21 37.28397 -119.74602 36074 ft 471 kts 335°
2026-04-22 06:21 37.34701 -119.76926 36065 ft 477 kts 335°
2026-04-22 06:22 37.41040 -119.79261 36062 ft 476 kts 335°
2026-04-22 06:22 37.47404 -119.81609 36063 ft 475 kts 335°
2026-04-22 06:23 37.53727 -119.83950 36063 ft 475 kts 335°
2026-04-22 06:23 37.60048 -119.86293 36063 ft 476 kts 335°
2026-04-22 06:24 37.69561 -119.89826 36063 ft 476 kts 335°
2026-04-22 06:25 37.75860 -119.92172 36063 ft 476 kts 335°
2026-04-22 06:25 37.82207 -119.94536 36095 ft 477 kts 336°
2026-04-22 06:26 37.88554 -119.96899 36094 ft 477 kts 336°
2026-04-22 06:26 37.94898 -119.99268 36094 ft 476 kts 336°
2026-04-22 06:27 38.01232 -120.01642 36094 ft 476 kts 336°
2026-04-22 06:27 38.07585 -120.04028 36094 ft 476 kts 336°
2026-04-22 06:28 38.13894 -120.06400 36093 ft 476 kts 336°
2026-04-22 06:28 38.20232 -120.08786 36094 ft 477 kts 337°
2026-04-22 06:29 38.26858 -120.10087 36093 ft 488 kts 351°
2026-04-22 06:29 38.33585 -120.10733 35987 ft 483 kts 352°
2026-04-22 06:30 38.40192 -120.11330 35982 ft 475 kts 352°
2026-04-22 06:30 38.46771 -120.11925 35985 ft 478 kts 352°
2026-04-22 06:31 38.53397 -120.12528 35983 ft 479 kts 352°
2026-04-22 06:31 38.60005 -120.13129 35983 ft 478 kts 352°
2026-04-22 06:32 38.66610 -120.13732 35983 ft 478 kts 352°
2026-04-22 06:32 38.73222 -120.14339 35983 ft 478 kts 352°
2026-04-22 06:33 38.79858 -120.14952 35951 ft 484 kts 353°
2026-04-22 06:33 38.86633 -120.15565 35945 ft 488 kts 354°
2026-04-22 06:34 38.93359 -120.16167 35944 ft 487 kts 354°
2026-04-22 06:34 39.00111 -120.16781 35944 ft 486 kts 354°
2026-04-22 06:35 39.06864 -120.17403 35945 ft 487 kts 354°
2026-04-22 06:35 39.13602 -120.18025 35944 ft 486 kts 354°
2026-04-22 06:36 39.20356 -120.18653 35945 ft 487 kts 354°
2026-04-22 06:36 39.27052 -120.19277 35938 ft 488 kts 354°
2026-04-22 06:37 39.33835 -120.19904 35886 ft 490 kts 354°
2026-04-22 06:37 39.40604 -120.20528 35886 ft 489 kts 354°
2026-04-22 06:38 39.47362 -120.21157 35887 ft 489 kts 354°
2026-04-22 06:38 39.54121 -120.21790 35887 ft 489 kts 354°
2026-04-22 06:39 39.60881 -120.22426 35887 ft 489 kts 354°
2026-04-22 06:39 39.65128 -120.22826 35887 ft 489 kts 354°
2026-04-22 06:40 39.71867 -120.23461 35887 ft 489 kts 354°
2026-04-22 06:40 39.78684 -120.24107 35875 ft 492 kts 355°
2026-04-22 06:41 39.85542 -120.24744 35872 ft 499 kts 355°
2026-04-22 06:41 39.90443 -120.25201 35877 ft 497 kts 355°
2026-04-22 06:42 39.96118 -120.25731 35909 ft 490 kts 355°
2026-04-22 06:42 40.04034 -120.26476 35912 ft 490 kts 355°
2026-04-22 06:43 40.10849 -120.27124 35910 ft 491 kts 355°
2026-04-22 06:43 40.17657 -120.27773 35911 ft 491 kts 355°
2026-04-22 06:44 40.24404 -120.28419 35911 ft 491 kts 355°
2026-04-22 06:44 40.31228 -120.29075 35874 ft 497 kts 355°
2026-04-22 06:45 40.38155 -120.29743 35872 ft 499 kts 355°
2026-04-22 06:45 40.45001 -120.30404 35871 ft 497 kts 355°
2026-04-22 06:46 40.51911 -120.31072 35872 ft 497 kts 355°
2026-04-22 06:46 40.58762 -120.31736 35872 ft 498 kts 355°
2026-04-22 06:47 40.65646 -120.32404 35872 ft 498 kts 355°
2026-04-22 06:47 40.72574 -120.33078 35872 ft 498 kts 355°
2026-04-22 06:48 40.79437 -120.33747 35851 ft 500 kts 355°
2026-04-22 06:48 40.86354 -120.34429 35846 ft 500 kts 355°
2026-04-22 06:49 40.93244 -120.35107 35845 ft 500 kts 355°
2026-04-22 06:49 41.00186 -120.35790 35846 ft 500 kts 355°
2026-04-22 06:50 41.07082 -120.36468 35846 ft 500 kts 355°
2026-04-22 06:50 41.14003 -120.37151 35845 ft 499 kts 355°
2026-04-22 06:51 41.20930 -120.37835 35846 ft 500 kts 355°
2026-04-22 06:51 41.27808 -120.38515 35849 ft 499 kts 355°
2026-04-22 06:52 41.34693 -120.39198 35849 ft 496 kts 355°
2026-04-22 06:52 41.41610 -120.39886 35850 ft 497 kts 355°
2026-04-22 06:53 41.48452 -120.40566 35849 ft 497 kts 355°
2026-04-22 06:53 41.55384 -120.41258 35849 ft 497 kts 355°
2026-04-22 06:54 41.62267 -120.41946 35849 ft 497 kts 355°
2026-04-22 06:54 41.69155 -120.42635 35849 ft 497 kts 355°
2026-04-22 06:55 41.76054 -120.43328 35850 ft 497 kts 355°
2026-04-22 06:55 41.82980 -120.44021 35624 ft 507 kts 355°
2026-04-22 06:55 41.86489 -120.44373 34758 ft 515 kts 355°
2026-04-22 06:56 41.90070 -120.44731 33952 ft 515 kts 356°
2026-04-22 06:56 41.93549 -120.45077 33921 ft 498 kts 356°
2026-04-22 06:56 41.96924 -120.45412 34451 ft 486 kts 356°
2026-04-22 06:57 42.03790 -120.46104 34077 ft 513 kts 356°
2026-04-22 06:57 42.07361 -120.46466 33387 ft 514 kts 356°
2026-04-22 06:57 42.10891 -120.46822 32711 ft 511 kts 356°
2026-04-22 06:57 42.14402 -120.47174 32040 ft 511 kts 356°
2026-04-22 06:58 42.17917 -120.47527 31370 ft 513 kts 356°
2026-04-22 06:58 42.21522 -120.47886 30690 ft 518 kts 356°
2026-04-22 06:58 42.25122 -120.48245 30015 ft 523 kts 356°
2026-04-22 06:58 42.28735 -120.48605 29341 ft 524 kts 357°
2026-04-22 06:59 42.32347 -120.48962 28665 ft 522 kts 357°
2026-04-22 06:59 42.35910 -120.49319 27994 ft 518 kts 357°
2026-04-22 06:59 42.39489 -120.49680 27309 ft 508 kts 357°
2026-04-22 06:59 42.42944 -120.50032 26629 ft 493 kts 357°
2026-04-22 07:00 42.46283 -120.50528 25954 ft 481 kts 352°
2026-04-22 07:00 42.49530 -120.51350 25276 ft 470 kts 346°
2026-04-22 07:00 42.52622 -120.52589 24604 ft 462 kts 340°
2026-04-22 07:00 42.55613 -120.54022 23981 ft 456 kts 339°
2026-04-22 07:01 42.58559 -120.55424 23851 ft 449 kts 339°
2026-04-22 07:01 42.61541 -120.56831 23876 ft 456 kts 339°
2026-04-22 07:01 42.64542 -120.58257 23869 ft 458 kts 339°
2026-04-22 07:01 42.67562 -120.59702 23866 ft 458 kts 339°
2026-04-22 07:02 42.70553 -120.61139 23866 ft 457 kts 339°
2026-04-22 07:02 42.73522 -120.62570 23867 ft 457 kts 339°
2026-04-22 07:02 42.76530 -120.64024 23862 ft 456 kts 340°
2026-04-22 07:02 42.79494 -120.65456 23831 ft 450 kts 340°
2026-04-22 07:03 42.82414 -120.66848 23827 ft 448 kts 340°
2026-04-22 07:03 42.85353 -120.68250 23829 ft 449 kts 340°
2026-04-22 07:03 42.88302 -120.69667 23829 ft 449 kts 340°
2026-04-22 07:03 42.91264 -120.71098 23828 ft 449 kts 340°
2026-04-22 07:04 42.94168 -120.72507 23829 ft 449 kts 340°
2026-04-22 07:04 42.97130 -120.73947 23829 ft 449 kts 340°
2026-04-22 07:04 43.00067 -120.75379 23828 ft 450 kts 340°
2026-04-22 07:04 43.03011 -120.76817 23825 ft 455 kts 340°
2026-04-22 07:05 43.06008 -120.78285 23826 ft 457 kts 340°
2026-04-22 07:05 43.08967 -120.79737 23824 ft 456 kts 340°
2026-04-22 07:05 43.11964 -120.81209 23823 ft 455 kts 340°
2026-04-22 07:05 43.14948 -120.82676 23825 ft 455 kts 340°
2026-04-22 07:06 43.17904 -120.84132 23825 ft 455 kts 340°
2026-04-22 07:06 43.20875 -120.85596 23825 ft 456 kts 340°
2026-04-22 07:06 43.23854 -120.87065 23825 ft 456 kts 340°
2026-04-22 07:06 43.26830 -120.88535 23822 ft 456 kts 339°
2026-04-22 07:07 43.29807 -120.90010 23814 ft 455 kts 339°
2026-04-22 07:07 43.32796 -120.91502 23814 ft 455 kts 339°
2026-04-22 07:07 43.35774 -120.92988 23814 ft 455 kts 339°
2026-04-22 07:07 43.38721 -120.94457 23814 ft 455 kts 339°
2026-04-22 07:08 43.41718 -120.95951 23814 ft 455 kts 339°
2026-04-22 07:08 43.44563 -120.97369 23814 ft 455 kts 339°
2026-04-22 07:08 43.47548 -120.98857 23814 ft 455 kts 339°
2026-04-22 07:08 43.50508 -121.00333 23814 ft 455 kts 339°
2026-04-22 07:09 43.53506 -121.01830 23814 ft 455 kts 339°
2026-04-22 07:09 43.56465 -121.03309 23814 ft 455 kts 339°
2026-04-22 07:09 43.59452 -121.04802 23814 ft 455 kts 339°
2026-04-22 07:09 43.60442 -121.05298 23814 ft 455 kts 339°
2026-04-22 07:10 43.65395 -121.07777 23814 ft 455 kts 339°
2026-04-22 07:10 43.68349 -121.09259 23814 ft 455 kts 339°
2026-04-22 07:10 43.71334 -121.10757 23814 ft 455 kts 339°
2026-04-22 07:10 43.74299 -121.12247 23814 ft 455 kts 339°
2026-04-22 07:11 43.77287 -121.13750 23804 ft 454 kts 339°
2026-04-22 07:11 43.80227 -121.15228 23775 ft 453 kts 339°
2026-04-22 07:11 43.83171 -121.16708 23774 ft 453 kts 339°
2026-04-22 07:11 43.86146 -121.18206 23775 ft 453 kts 339°
2026-04-22 07:12 43.89112 -121.19702 23775 ft 453 kts 339°
2026-04-22 07:12 43.91080 -121.20696 23774 ft 453 kts 339°
2026-04-22 07:12 43.95025 -121.22691 23774 ft 453 kts 339°
2026-04-22 07:12 43.98006 -121.24201 23774 ft 453 kts 339°
2026-04-22 07:13 44.00962 -121.25700 23777 ft 452 kts 339°
2026-04-22 07:13 44.03883 -121.27181 23797 ft 451 kts 340°
2026-04-22 07:13 44.06835 -121.28665 23801 ft 452 kts 340°
2026-04-22 07:13 44.09787 -121.30151 23801 ft 452 kts 340°
2026-04-22 07:14 44.12747 -121.31646 23800 ft 452 kts 340°
2026-04-22 07:14 44.15670 -121.33128 23801 ft 452 kts 340°
2026-04-22 07:14 44.18619 -121.34628 23801 ft 452 kts 340°
2026-04-22 07:14 44.21575 -121.36134 23801 ft 452 kts 340°
2026-04-22 07:15 44.24536 -121.37646 23801 ft 452 kts 340°
2026-04-22 07:15 44.27448 -121.39133 23802 ft 451 kts 339°
2026-04-22 07:15 44.29402 -121.40134 23802 ft 450 kts 339°
2026-04-22 07:15 44.33296 -121.42153 23802 ft 450 kts 338°
2026-04-22 07:16 44.36230 -121.43677 23802 ft 450 kts 338°
2026-04-22 07:16 44.39171 -121.45203 23802 ft 450 kts 339°
2026-04-22 07:16 44.42080 -121.46708 23802 ft 450 kts 339°
2026-04-22 07:16 44.45008 -121.48223 23802 ft 450 kts 339°
2026-04-22 07:17 44.47944 -121.49742 23802 ft 450 kts 339°
2026-04-22 07:17 44.50899 -121.51272 23802 ft 450 kts 339°
2026-04-22 07:17 44.53833 -121.52791 23802 ft 450 kts 339°
2026-04-22 07:17 44.56745 -121.54300 23802 ft 450 kts 339°
2026-04-22 07:18 44.59679 -121.55821 23802 ft 450 kts 339°
2026-04-22 07:18 44.62579 -121.57326 23802 ft 450 kts 339°
2026-04-22 07:18 44.65528 -121.58857 23802 ft 450 kts 339°
2026-04-22 07:18 44.68460 -121.60382 23802 ft 450 kts 339°
2026-04-22 07:19 44.71377 -121.61900 23802 ft 450 kts 339°
2026-04-22 07:19 44.74332 -121.63439 23802 ft 450 kts 339°
2026-04-22 07:19 44.77247 -121.64960 23812 ft 448 kts 339°
2026-04-22 07:19 44.80134 -121.66462 23832 ft 447 kts 338°
2026-04-22 07:20 44.83047 -121.67977 23835 ft 447 kts 338°
2026-04-22 07:20 44.85962 -121.69496 23834 ft 448 kts 338°
2026-04-22 07:20 44.88880 -121.71020 23834 ft 448 kts 338°
2026-04-22 07:20 44.91786 -121.72540 23834 ft 447 kts 338°
2026-04-22 07:21 44.94723 -121.74079 23834 ft 447 kts 338°
2026-04-22 07:21 44.97627 -121.75603 23835 ft 448 kts 338°
2026-04-22 07:21 45.00559 -121.77144 23867 ft 454 kts 338°
2026-04-22 07:21 45.03513 -121.78702 23876 ft 456 kts 338°
2026-04-22 07:22 45.06460 -121.80257 23874 ft 455 kts 338°
2026-04-22 07:22 45.09438 -121.81829 23874 ft 454 kts 338°
2026-04-22 07:22 45.12384 -121.83386 23873 ft 454 kts 338°
2026-04-22 07:22 45.15342 -121.84951 23872 ft 454 kts 338°
2026-04-22 07:23 45.18306 -121.86521 23858 ft 455 kts 338°
2026-04-22 07:23 45.21254 -121.88085 23546 ft 456 kts 338°
2026-04-22 07:23 45.24184 -121.89638 23219 ft 449 kts 338°
2026-04-22 07:23 45.27097 -121.91184 22893 ft 442 kts 339°
2026-04-22 07:24 45.29949 -121.92693 22566 ft 432 kts 340°
2026-04-22 07:24 45.32698 -121.94136 22244 ft 422 kts 340°
2026-04-22 07:24 45.35430 -121.95574 21918 ft 416 kts 339°
2026-04-22 07:24 45.38149 -121.97012 21592 ft 416 kts 339°
2026-04-22 07:25 45.40835 -121.98438 21269 ft 415 kts 339°
2026-04-22 07:25 45.43536 -121.99876 20943 ft 413 kts 339°
2026-04-22 07:25 45.46211 -122.01304 20617 ft 410 kts 339°
2026-04-22 07:25 45.48857 -122.02718 20293 ft 408 kts 339°
2026-04-22 07:26 45.51502 -122.04134 19967 ft 406 kts 339°
2026-04-22 07:26 45.54102 -122.05529 19645 ft 403 kts 339°
2026-04-22 07:26 45.56737 -122.06944 19317 ft 401 kts 339°
2026-04-22 07:26 45.59328 -122.08337 18993 ft 399 kts 339°
2026-04-22 07:27 45.61914 -122.09729 18667 ft 397 kts 339°
2026-04-22 07:27 45.64494 -122.11118 18341 ft 395 kts 339°
2026-04-22 07:27 45.67027 -122.12483 18018 ft 392 kts 339°
2026-04-22 07:27 45.69577 -122.13859 17692 ft 390 kts 339°
2026-04-22 07:28 45.74598 -122.16569 17201 ft 382 kts 339°
2026-04-22 07:28 45.77073 -122.17908 17205 ft 386 kts 340°
2026-04-22 07:28 45.79588 -122.19267 17202 ft 387 kts 340°
2026-04-22 07:29 45.82124 -122.20637 17199 ft 387 kts 340°
2026-04-22 07:29 45.84612 -122.21980 17199 ft 387 kts 340°
2026-04-22 07:29 45.87142 -122.23351 17199 ft 387 kts 340°
2026-04-22 07:29 45.89657 -122.24717 17199 ft 387 kts 340°
2026-04-22 07:30 45.92174 -122.26086 17207 ft 385 kts 340°
2026-04-22 07:30 45.94672 -122.27447 17216 ft 385 kts 340°
2026-04-22 07:30 45.97196 -122.28822 17217 ft 385 kts 340°
2026-04-22 07:30 45.99679 -122.30177 17217 ft 385 kts 340°
2026-04-22 07:31 46.02176 -122.31540 17216 ft 385 kts 340°
2026-04-22 07:31 46.04695 -122.32918 17217 ft 385 kts 340°
2026-04-22 07:31 46.07201 -122.34290 17217 ft 385 kts 340°
2026-04-22 07:31 46.09671 -122.35644 17216 ft 385 kts 340°
2026-04-22 07:32 46.12174 -122.37017 17020 ft 378 kts 340°
2026-04-22 07:32 46.14576 -122.38339 16804 ft 361 kts 340°
2026-04-22 07:32 46.16919 -122.39626 16718 ft 361 kts 340°
2026-04-22 07:32 46.19271 -122.40918 16642 ft 363 kts 340°
2026-04-22 07:33 46.21601 -122.42201 16568 ft 362 kts 340°
2026-04-22 07:33 46.23953 -122.43497 16494 ft 362 kts 340°
2026-04-22 07:33 46.26282 -122.44782 16419 ft 363 kts 341°
2026-04-22 07:33 46.28671 -122.46099 16345 ft 365 kts 341°
2026-04-22 07:34 46.31006 -122.47388 16271 ft 364 kts 341°
2026-04-22 07:34 46.33363 -122.48692 16196 ft 363 kts 341°
2026-04-22 07:34 46.35728 -122.50001 16121 ft 362 kts 341°
2026-04-22 07:34 46.38067 -122.51297 16046 ft 362 kts 341°
2026-04-22 07:35 46.40426 -122.52605 15971 ft 361 kts 341°
2026-04-22 07:35 46.42762 -122.53903 15896 ft 361 kts 341°
2026-04-22 07:35 46.45103 -122.55205 15821 ft 360 kts 341°
2026-04-22 07:35 46.47431 -122.56499 15746 ft 360 kts 340°
2026-04-22 07:36 46.49763 -122.57798 15672 ft 359 kts 340°
2026-04-22 07:36 46.52087 -122.59094 15597 ft 359 kts 340°
2026-04-22 07:36 46.54432 -122.60403 15521 ft 358 kts 340°
2026-04-22 07:36 46.56726 -122.61684 15447 ft 358 kts 340°
2026-04-22 07:37 46.59052 -122.62984 15371 ft 357 kts 340°
2026-04-22 07:37 46.61369 -122.64280 15296 ft 356 kts 340°
2026-04-22 07:37 46.63682 -122.65575 15221 ft 356 kts 340°
2026-04-22 07:37 46.65993 -122.66866 15146 ft 355 kts 340°
2026-04-22 07:38 46.68289 -122.68151 15071 ft 355 kts 340°
2026-04-22 07:38 46.70568 -122.69429 15018 ft 354 kts 340°
2026-04-22 07:38 46.72889 -122.70733 15014 ft 354 kts 340°
2026-04-22 07:38 46.75162 -122.71962 15013 ft 354 kts 345°
2026-04-22 07:39 46.77592 -122.72511 14990 ft 352 kts
2026-04-22 07:39 46.79927 -122.71759 14985 ft 341 kts 30°
2026-04-22 07:39 46.81851 -122.69859 15000 ft 332 kts 46°
2026-04-22 07:39 46.83619 -122.67712 14992 ft 332 kts 45°
2026-04-22 07:40 46.85429 -122.65614 14986 ft 333 kts 43°
2026-04-22 07:40 46.87252 -122.63566 14985 ft 333 kts 43°
2026-04-22 07:40 46.89086 -122.61489 14985 ft 333 kts 44°
2026-04-22 07:40 46.90899 -122.59428 14986 ft 333 kts 44°
2026-04-22 07:41 46.92788 -122.57432 14912 ft 337 kts 36°
2026-04-22 07:41 46.94861 -122.55908 14645 ft 334 kts 27°
2026-04-22 07:41 46.97060 -122.54788 14124 ft 335 kts 21°
2026-04-22 07:41 46.99277 -122.53805 13597 ft 330 kts 21°
2026-04-22 07:42 47.01433 -122.52845 13205 ft 322 kts 21°
2026-04-22 07:42 47.03568 -122.51900 13184 ft 323 kts 21°
2026-04-22 07:42 47.05748 -122.50936 13189 ft 326 kts 21°
2026-04-22 07:42 47.07926 -122.50025 13184 ft 328 kts 16°
2026-04-22 07:43 47.10174 -122.49520 13187 ft 330 kts 10°
2026-04-22 07:43 47.12466 -122.49141 13187 ft 330 kts 10°
2026-04-22 07:43 47.14712 -122.48739 13186 ft 330 kts 11°
2026-04-22 07:43 47.16992 -122.48323 13186 ft 330 kts 11°
2026-04-22 07:44 47.19284 -122.47910 13186 ft 331 kts 10°
2026-04-22 07:44 47.21567 -122.47552 12929 ft 335 kts
2026-04-22 07:44 47.23866 -122.47213 12313 ft 330 kts
2026-04-22 07:44 47.26140 -122.46876 11707 ft 322 kts
2026-04-22 07:45 47.28329 -122.46551 11124 ft 313 kts
2026-04-22 07:45 47.30431 -122.46240 10555 ft 293 kts
2026-04-22 07:45 47.32398 -122.45947 9903 ft 281 kts
2026-04-22 07:45 47.34302 -122.45658 9305 ft 274 kts
2026-04-22 07:46 47.36201 -122.45466 8700 ft 271 kts
2026-04-22 07:46 47.38019 -122.45489 8208 ft 263 kts
2026-04-22 07:46 47.39822 -122.45511 8149 ft 263 kts
2026-04-22 07:46 47.41666 -122.45515 8161 ft 265 kts
2026-04-22 07:47 47.43508 -122.45519 8146 ft 266 kts
2026-04-22 07:47 47.45355 -122.45522 7664 ft 264 kts
2026-04-22 07:47 47.47132 -122.45530 6953 ft 253 kts
2026-04-22 07:47 47.48846 -122.45534 6243 ft 241 kts
2026-04-22 07:48 47.50449 -122.45532 5861 ft 221 kts
2026-04-22 07:48 47.52000 -122.45547 5464 ft 225 kts 360°
2026-04-22 07:48 47.53540 -122.45566 4964 ft 222 kts 359°
2026-04-22 07:48 47.55078 -122.45586 4847 ft 221 kts 359°
2026-04-22 07:49 47.56631 -122.45611 4859 ft 223 kts 359°
2026-04-22 07:49 47.58173 -122.45635 4858 ft 224 kts 359°
2026-04-22 07:49 47.59755 -122.45660 4857 ft 224 kts 359°
2026-04-22 07:49 47.61308 -122.45684 4857 ft 224 kts 359°
2026-04-22 07:50 47.62855 -122.45709 4857 ft 224 kts 359°
2026-04-22 07:50 47.64422 -122.45730 4857 ft 224 kts
2026-04-22 07:50 47.65961 -122.45673 4857 ft 224 kts
2026-04-22 07:50 47.67524 -122.45736 4849 ft 224 kts 348°
2026-04-22 07:51 47.68891 -122.46772 4846 ft 224 kts 316°
2026-04-22 07:51 47.69673 -122.48747 4837 ft 226 kts 284°
2026-04-22 07:51 47.69644 -122.51046 4833 ft 226 kts 254°
2026-04-22 07:51 47.68835 -122.53016 4831 ft 227 kts 221°
2026-04-22 07:52 47.67437 -122.54041 4831 ft 227 kts 189°
2026-04-22 07:52 47.65883 -122.53863 4840 ft 227 kts 165°
2026-04-22 07:52 47.64359 -122.53262 4842 ft 227 kts 165°
2026-04-22 07:52 47.62829 -122.52679 4842 ft 227 kts 165°
2026-04-22 07:53 47.61317 -122.52102 4842 ft 227 kts 165°
2026-04-22 07:53 47.59785 -122.51517 4841 ft 227 kts 165°
2026-04-22 07:53 47.58263 -122.50936 4840 ft 227 kts 165°
2026-04-22 07:53 47.56718 -122.50346 4840 ft 227 kts 165°
2026-04-22 07:54 47.55197 -122.49766 4839 ft 227 kts 165°
2026-04-22 07:54 47.53688 -122.49189 4839 ft 227 kts 165°
2026-04-22 07:54 47.52164 -122.48600 4838 ft 227 kts 165°
2026-04-22 07:54 47.50641 -122.47997 4838 ft 227 kts 164°
2026-04-22 07:55 47.49107 -122.47381 4838 ft 227 kts 164°
2026-04-22 07:55 47.47624 -122.46653 4810 ft 228 kts 148°
2026-04-22 07:55 47.46837 -122.44704 3815 ft 243 kts 94°
2026-04-22 07:55 47.47469 -122.42602 3160 ft 218 kts 39°
2026-04-22 07:56 47.48824 -122.41835 3028 ft 202 kts
2026-04-22 07:56 47.50098 -122.42073 2944 ft 179 kts 341°
2026-04-22 07:56 47.51266 -122.42734 2441 ft 175 kts 336°
2026-04-22 07:56 47.52352 -122.43494 2054 ft 169 kts 332°
2026-04-22 07:57 47.53331 -122.44383 1899 ft 168 kts 318°
2026-04-22 07:57 47.54151 -122.45637 1648 ft 172 kts 312°